Weather in Kedvavom

Russia / Komi Republic     64°13′32″N   53°33′55″E
temp.,
°C
wind,
m/s
gust,
m/s
humid.,
%
clouds,
%
prec.,
mm/h
press.,
hPa
HPBL,
m
18 may, tue
tue1800:00+7n117833 0.0 102012
03:00+6n1177100 0.0 102111
06:00+10nne11595 0.0 1023255
09:00+15ene01395 0.0 1023710
12:00+18ssw113617 0.0 10231043
15:00+20ssw12365 0.0 10221453
18:00+19sse2242100 0.0 1022474
21:00+14sse26546 0.0 1022119
19 may, wed
wed1900:00+13s3960100 0.0 1022187
03:00+12s3116196 0.0 1022263
06:00+15s4105299 0.0 1021413
09:00+21ssw584099 0.0 10191033
12:00+24sw573558 0.0 10181571
15:00+26sw5733100 0.0 10161779
18:00+25sw48395 0.0 1015750
21:00+21sw41253100 0.0 1016307
20 may, thu
thu2000:00+19sw4135590 0.0 1016361
03:00+17sw3116383 0.0 1016301
06:00+21wsw395121 0.0 1016402
09:00+25sw463724 0.0 10161089
12:00+27sw56285 0.0 10141966
15:00+28sw57225 0.0 10142242
18:00+27sw37275 0.0 1013790
21:00+20ssw310445 0.0 1013189
21 may, fri
fri2100:00+18ssw3125392 0.0 1013251
03:00+16ssw39640 0.0 1013202
06:00+21sw37500 0.0 1013340
09:00+26ssw57310 0.0 10121814
12:00+28ssw58240 0.0 10112404
15:00+28ssw58250 0.0 10092784
18:00+26s58265 0.0 10082519
21:00+21s310395 0.0 1007322
22 may, sat
sat2200:00+18s412465 0.0 1007482
03:00+17s4115738 0.0 1006514
06:00+18ssw4960100 0.0 1004959
09:00+14ssw41084100 3.6 1004927
12:00+16sw71158100 0.5 10041723
15:00+15wsw7136130 0.6 10061554
18:00+14wsw5145960 0.1 10071635
21:00+11w6146686 0.3 10081454